User: anonymous   Login
Location: *
(58.4167°N, 22.5000°E)
Time: 02:30:14
(UTC+00:00)
Language:

Cosmos 1603 - Orbit

View from above orbital plane
View from above orbital plane
View from above satellite
View from above satellite

Ground track
Ground track

The orbit data is extracted from the following two-line orbital elements,

1 15333U 84106A   19321.80499736 -.00000265 +00000-0 -11395-3 0  9993
2 15333 071.0287 042.0309 0022160 298.5302 061.3589 14.14095642812931
Epoch (UTC): 17 November 2019 19:19:11
Eccentricity: 0.0022160
inclination: 71.0287°
perigee height: 829 km
apogee height: 861 km
right ascension of ascending node: 42.0309°
argument of perigee: 298.5302°
revolutions per day: 14.14095642
mean anomaly at epoch: 61.3589°
orbit number at epoch: 81293

The dashed part of the orbit path shows where the satellite is in the earth's shadow,  

DLR